Temperature
12 12 12 12 12 12 12 12 12 12 12 11 11 11 11 11 11 11 11 11 11 11 11 11 11 11 11 11 11 11 11 11 11 11 11 11 11 11
12 12 12 12 12 12 12 12 12 12 12 11 11 11 11 11 11 11 11 11 11 11 11 11 11 11 11 11 11 11 11 11 11 11 11 11 11 11
12 12 12 12 12 12 12 11 11 11 11 11 11 11 11 11 11 10 10 10 10 11 11 11 11 11 11 11 11 11 11 11 10 10 10 10 10 10
12 11 11 11 11 11 11 11 11 11 11 11 11 11 10 10 10 10 10 10 10 10 11 11 11 11 10 10 10 10 10 10 10 10 10 10 10 10
11 11 11 11 11 11 11 11 11 11 11 10 10 10 10 10 10 10 10 10 10 10 10 10 10 10 10 10 10 10 10 10 10 10 10 10 10 10
11 11 11 11 11 11 11 11 11 10 10 10 10 10 10 10 10 10 9 10 9 9 10 10 10 10 10 10 9 9 9 9 9 9 9 9 9 9
11 11 11 11 11 11 11 11 10 10 10 10 10 10 10 10 10 9 9 9 9 9 9 9 9 9 9 9 9 9 9 9 9 9 9 9 9 9
10 10 10 10 11 11 11 10 10 10 10 10 10 10 10 9 9 9 9 9 9 9 9 9 9 9 9 9 9 9 9 9 9 9 9 9 9 9
10 10 10 10 10 10 10 10 10 10 10 10 10 10 10 9 9 9 9 9 8 8 8 8 8 8 8 8 9 9 8 8 8 8 8 8 9 9
10 9 9 10 10 10 10 10 10 10 9 9 9 9 9 9 9 9 8 8 8 8 8 8 8 8 8 8 8 8 8 8 8 8 8 8 8 8
9 9 9 9 9 9 9 9 9 9 9 9 9 9 9 9 9 8 8 8 8 8 7 7 7 7 7 7 7 8 8 8 8 8 8 8 8 8
9 9 9 9 9 9 9 9 9 9 9 9 9 9 8 8 8 8 8 7 7 7 7 7 7 7 7 7 7 7 7 7 7 7 7 7 7 7
9 9 9 9 9 9 9 8 8 8 8 8 8 8 8 8 8 8 7 7 7 7 7 7 6 6 6 6 6 6 6 6 6 6 7 7 7 7
8 8 8 9 9 9 8 8 8 8 8 8 7 7 7 7 7 7 7 7 7 6 6 6 6 6 6 6 6 6 6 6 6 6 6 6 6 6
8 8 8 8 8 8 8 8 8 8 7 7 7 7 7 7 7 7 6 6 6 6 6 6 6 6 6 6 6 6 5 5 5 6 6 6 6 6
7 7 7 7 7 7 7 7 7 7 7 7 6 6 6 6 6 6 6 6 6 6 6 6 6 6 5 5 5 5 5 5 5 5 5 5 5 5
7 7 7 7 7 7 7 7 7 7 6 6 6 6 6 6 6 6 6 6 6 6 6 6 5 5 5 5 5 5 5 5 5 5 5 5 5 5
6 6 7 7 6 6 6 6 6 6 6 6 5 5 5 5 5 5 5 5 5 5 5 5 5 5 5 5 5 5 5 5 5 4 4 4 5 4
6 6 6 6 6 6 6 6 6 6 6 5 5 5 5 5 5 5 5 4 4 4 4 5 4 4 4 4 5 5 4 4 4 4 4 4 4 4
5 5 6 6 6 6 6 5 5 5 5 5 5 5 5 4 4 4 4 4 4 4 4 4 4 4 4 4 4 4 4 4 4 4 4 4 4 4
5 5 5 5 5 5 5 5 5 5 5 5 5 5 4 4 4 4 4 4 4 4 3 3 3 3 3 3 3 4 4 4 3 3 3 3 3 3
5 5 5 5 5 5 5 5 5 5 4 4 4 4 4 4 4 4 3 3 3 3 3 3 3 3 3 2 3 3 3 3 3 3 3 3 3 3
4 4 5 5 4 4 4 4 4 4 4 4 4 4 4 4 3 3 3 3 3 2 2 2 2 2 2 2 2 2 2 3 3 3 3 3 3 3
Wind_Speed
3 3 3 3 3 3 3 3 3 3 3 2 2 2 2 1 1 2 0 2 1 1 1 0 1 1 2 1 1 1 1 2 2 2 3 3 3 3
3 3 3 3 3 3 4 3 4 4 3 1 2 2 2 2 1 2 0 2 1 0 1 1 1 1 1 1 1 1 1 2 2 3 3 3 3 4
4 4 4 4 3 3 4 4 4 4 4 2 2 2 3 3 2 2 2 2 1 1 1 1 1 1 1 1 1 1 1 2 2 3 3 3 3 4
5 5 5 4 4 4 4 5 4 4 4 3 3 2 3 3 2 2 2 2 2 2 2 2 2 2 2 2 2 2 2 2 3 3 3 3 3 4
5 5 5 5 5 4 5 5 4 4 3 3 3 2 2 3 2 2 2 2 2 2 3 4 4 3 3 3 3 3 2 2 2 2 2 3 4 4
5 5 6 6 6 5 5 5 4 4 4 4 3 3 3 3 3 3 2 2 2 2 2 3 4 5 4 3 3 3 3 3 2 3 3 3 3 4
5 6 5 4 4 4 4 5 5 4 4 4 4 3 3 3 3 3 3 2 2 2 2 2 3 3 3 4 4 3 3 3 3 3 3 3 3 4
5 5 4 5 5 5 4 4 5 6 5 5 4 4 4 4 3 3 3 3 3 2 3 3 2 2 2 2 1 3 3 3 3 3 3 3 3 4
4 4 4 4 5 5 6 6 6 6 6 6 5 5 5 4 4 4 4 4 3 1 2 3 3 3 2 1 2 2 3 3 3 3 3 3 3 4
5 5 5 5 4 5 5 6 6 6 6 6 6 5 4 3 4 4 4 4 3 2 2 3 3 3 2 2 3 3 3 3 4 3 3 3 4 5
5 5 5 5 2 4 6 6 6 5 4 3 1 1 0 0 2 3 4 4 4 3 3 3 3 3 3 3 3 5 5 4 4 4 4 4 5 6
4 4 4 4 2 5 6 6 6 5 5 5 4 4 5 5 6 5 5 5 4 3 3 4 3 3 3 3 2 3 4 5 6 5 4 4 5 5
4 4 3 3 4 5 5 5 4 4 4 4 4 4 3 3 4 5 4 4 5 4 2 3 3 4 3 2 2 2 2 2 3 4 5 5 4 4
4 4 2 3 4 4 4 3 2 3 4 4 4 3 3 3 3 3 4 4 4 4 3 4 4 4 4 4 3 2 2 3 3 3 3 4 6 7
3 2 2 4 5 4 3 4 5 5 4 4 4 3 3 2 2 2 3 3 3 3 3 4 4 4 5 5 4 3 3 3 3 4 4 4 4 4
3 2 4 5 4 3 4 4 4 3 4 4 3 3 2 3 3 3 3 3 3 3 2 3 4 4 4 5 4 4 4 3 3 4 4 4 4 4
3 3 3 4 4 3 3 3 3 3 3 3 3 3 3 3 3 3 3 4 4 3 3 2 2 3 4 5 5 5 4 4 4 4 4 5 5 4
4 5 5 5 5 5 4 4 4 4 4 3 3 3 3 3 3 3 3 4 4 3 3 2 2 2 3 3 4 5 5 5 4 4 5 5 6 5
5 5 5 5 5 5 5 5 5 4 4 4 4 4 4 4 3 4 4 4 4 3 3 3 3 4 5 5 3 5 5 5 4 5 5 5 6 5
5 6 6 6 5 5 5 5 5 5 5 4 4 4 4 4 4 4 4 4 4 4 4 4 4 4 5 5 4 4 6 5 5 5 5 5 5 5
6 5 5 5 5 5 5 5 5 5 5 5 5 5 5 5 5 5 4 5 5 5 5 5 4 4 4 4 4 5 4 5 6 6 6 5 5 5
5 5 5 5 5 5 5 5 5 5 5 5 5 5 5 5 6 6 5 5 5 5 5 4 2 3 4 5 6 6 5 4 5 7 8 7 5 5
4 4 4 5 5 5 5 5 6 5 5 5 5 5 5 6 5 5 6 6 5 5 4 4 3 4 5 5 6 6 6 5 4 4 5 6 9 10
Wind_Direction
250 252 254 248 244 247 241 241 255 258 242 218 211 205 199 202 159 228 201 103 70 2 346 343 359 348 341 339 322 335 338 332 331 333 331 332 334 330
246 252 257 257 248 243 243 240 246 259 260 218 219 196 192 206 202 243 239 137 166 259 305 258 251 280 293 302 289 303 316 321 320 325 325 328 329 328
227 233 241 248 241 237 234 231 234 239 242 238 222 200 200 215 195 224 226 229 181 167 241 233 230 247 243 254 277 274 281 295 306 310 320 323 324 327
238 237 241 237 237 235 231 230 230 232 236 237 219 213 221 222 217 218 213 232 242 161 213 233 232 238 239 245 255 263 270 279 288 294 302 312 316 316
244 244 243 239 235 228 228 229 227 224 226 228 236 229 231 221 219 221 227 236 245 208 213 225 225 232 237 244 247 252 259 274 278 283 296 308 311 309
246 248 248 244 240 229 226 227 221 217 214 214 224 227 224 223 222 227 230 225 244 246 236 233 219 217 219 229 232 238 246 254 265 274 281 291 299 304
243 245 247 249 274 249 237 227 213 213 212 213 217 222 225 224 228 234 242 245 241 253 257 246 233 234 219 213 220 230 239 253 261 265 274 282 287 294
247 250 245 228 229 227 242 247 234 222 219 218 225 225 233 231 230 236 239 246 253 237 260 261 248 255 258 255 190 202 227 248 262 266 269 279 283 288
248 250 243 237 234 223 210 213 225 237 242 240 234 238 242 233 226 232 236 250 265 274 263 262 251 256 251 243 164 199 226 246 257 259 259 269 280 282
247 250 245 242 236 230 221 215 218 218 223 234 238 241 248 245 236 243 249 243 254 248 249 264 259 264 256 240 182 203 225 241 247 253 255 262 268 269
248 251 248 243 218 222 224 221 220 216 195 203 270 241 81 176 231 230 227 233 244 236 231 257 265 266 252 241 204 195 210 226 239 247 255 264 268 262
246 245 243 247 219 211 225 225 223 219 207 194 193 199 208 196 208 227 233 243 252 247 224 243 256 259 255 240 239 229 218 217 222 230 244 264 280 270
240 242 238 204 210 210 238 237 237 230 214 213 208 208 211 207 208 223 230 241 246 247 225 234 254 255 260 262 259 259 263 257 238 229 226 236 255 267
242 240 223 172 193 212 231 227 189 211 214 211 209 213 214 215 218 222 225 227 239 251 235 236 249 252 256 259 262 261 266 269 268 266 262 230 231 235
247 238 203 190 196 204 205 191 194 209 210 212 215 224 227 224 220 221 224 221 222 229 235 239 246 249 254 258 262 263 269 269 263 268 268 267 262 249
241 193 187 190 200 197 186 193 205 209 215 216 215 211 204 202 208 211 210 210 216 218 227 243 251 248 249 258 261 264 266 270 269 274 278 278 277 271
224 221 211 196 199 199 200 200 202 201 206 215 211 201 204 211 209 207 217 222 231 231 219 221 241 243 256 263 258 259 266 269 271 268 270 273 272 271
210 220 216 211 210 206 205 203 205 206 205 208 213 210 211 215 216 211 217 227 237 239 235 229 227 238 246 250 248 259 263 268 274 268 266 269 272 272
217 226 221 215 215 212 209 206 208 209 207 209 215 214 213 218 219 218 220 228 237 239 236 226 229 239 252 260 237 229 264 271 270 268 265 270 276 278
230 233 227 221 217 216 213 212 210 205 205 208 214 216 216 218 220 223 223 225 234 237 238 232 232 240 253 266 269 263 245 263 271 272 273 276 278 275
234 237 234 227 218 215 215 213 209 209 210 212 213 214 215 218 222 226 228 224 234 237 241 244 243 241 259 268 264 262 259 246 266 273 276 273 275 273
238 236 234 233 224 217 216 214 213 213 214 218 218 217 217 218 220 224 228 228 233 243 249 251 238 233 240 250 262 273 277 274 255 254 260 257 269 269
241 239 236 234 230 223 219 218 219 220 220 222 222 221 220 221 222 224 229 232 236 241 244 247 245 245 249 252 264 270 271 277 280 279 274 250 246 257
Height
1532 1533 1533 1533 1533 1533 1533 1534 1535 1534 1535 1534 1534 1533 1533 1533 1532 1532 1531 1530 1530 1529 1529 1529 1528 1528 1528 1528 1528 1528 1528 1528 1528 1528 1528 1528 1528 1528
1530 1530 1530 1531 1531 1531 1531 1531 1532 1533 1532 1532 1532 1531 1531 1531 1531 1530 1530 1529 1528 1528 1527 1527 1527 1527 1527 1526 1527 1526 1526 1526 1526 1526 1526 1526 1526 1525
1528 1528 1528 1528 1528 1528 1528 1529 1529 1530 1530 1530 1530 1530 1529 1529 1529 1529 1528 1527 1527 1526 1525 1525 1525 1525 1525 1524 1524 1524 1524 1524 1524 1524 1524 1524 1524 1523
1525 1525 1526 1526 1526 1526 1526 1526 1527 1527 1528 1527 1528 1528 1528 1527 1527 1527 1526 1526 1525 1524 1524 1523 1523 1522 1522 1522 1522 1522 1522 1522 1522 1522 1522 1521 1521 1521
1522 1523 1523 1523 1523 1523 1523 1524 1524 1524 1525 1525 1525 1525 1525 1525 1525 1525 1524 1524 1523 1522 1521 1521 1521 1520 1520 1520 1520 1520 1520 1520 1520 1520 1519 1519 1519 1519
1519 1519 1519 1519 1520 1520 1520 1521 1521 1521 1522 1522 1523 1523 1523 1523 1523 1523 1522 1522 1521 1521 1520 1519 1518 1518 1518 1517 1517 1517 1517 1517 1517 1517 1517 1517 1516 1516
1515 1515 1515 1515 1516 1516 1517 1517 1518 1518 1519 1519 1520 1520 1521 1520 1520 1520 1520 1520 1519 1519 1518 1517 1517 1516 1515 1515 1515 1515 1515 1515 1514 1514 1514 1514 1514 1513
1511 1511 1511 1511 1512 1513 1513 1514 1515 1515 1516 1517 1517 1517 1518 1518 1517 1518 1518 1518 1518 1517 1516 1516 1515 1514 1513 1513 1512 1512 1512 1512 1512 1511 1511 1511 1511 1510
1508 1508 1508 1508 1508 1509 1510 1510 1511 1512 1513 1514 1514 1514 1515 1515 1515 1515 1515 1515 1515 1514 1513 1513 1513 1512 1511 1510 1510 1509 1509 1509 1508 1508 1508 1508 1508 1508
1504 1504 1504 1504 1505 1506 1506 1507 1508 1508 1509 1510 1511 1511 1511 1512 1512 1512 1512 1512 1512 1511 1511 1511 1510 1510 1509 1508 1507 1507 1506 1506 1505 1505 1505 1505 1505 1504
1500 1500 1501 1501 1501 1502 1503 1503 1504 1504 1505 1505 1506 1507 1507 1508 1508 1508 1509 1509 1509 1509 1508 1508 1507 1507 1506 1506 1505 1504 1503 1503 1503 1502 1502 1502 1502 1501
1496 1496 1497 1497 1497 1498 1499 1500 1500 1500 1501 1502 1502 1503 1503 1504 1504 1505 1505 1506 1506 1506 1505 1504 1504 1504 1504 1503 1502 1501 1501 1500 1500 1499 1499 1499 1499 1498
1492 1492 1492 1493 1493 1494 1495 1496 1496 1497 1497 1498 1499 1499 1500 1500 1500 1501 1501 1502 1502 1502 1502 1501 1501 1501 1501 1501 1500 1499 1498 1498 1497 1496 1496 1495 1495 1495
1488 1488 1488 1489 1489 1489 1490 1491 1492 1493 1494 1494 1495 1495 1496 1496 1497 1497 1497 1498 1498 1498 1498 1498 1498 1498 1498 1498 1497 1496 1495 1495 1494 1493 1493 1492 1491 1491
1484 1484 1484 1485 1485 1485 1486 1486 1488 1489 1490 1490 1491 1491 1492 1492 1493 1493 1493 1494 1494 1494 1494 1494 1494 1494 1495 1494 1494 1493 1493 1491 1491 1490 1490 1489 1488 1487
1480 1480 1480 1481 1481 1481 1482 1483 1484 1484 1485 1486 1486 1487 1487 1488 1488 1489 1489 1490 1490 1490 1490 1490 1490 1491 1490 1490 1490 1490 1489 1489 1487 1487 1486 1485 1484 1484
1476 1476 1476 1477 1477 1478 1479 1479 1480 1481 1481 1482 1482 1483 1484 1484 1485 1485 1486 1486 1487 1487 1487 1487 1487 1487 1486 1487 1486 1486 1485 1485 1484 1483 1482 1481 1480 1480
1472 1472 1472 1473 1473 1474 1474 1475 1476 1477 1477 1478 1479 1479 1480 1481 1481 1482 1482 1483 1483 1483 1483 1483 1483 1483 1483 1483 1483 1482 1481 1481 1480 1479 1478 1477 1476 1476
1467 1468 1468 1468 1469 1470 1470 1471 1472 1473 1473 1474 1475 1476 1476 1477 1478 1478 1479 1479 1480 1480 1480 1480 1480 1480 1480 1479 1478 1478 1477 1476 1476 1475 1474 1473 1472 1471
1463 1463 1463 1463 1464 1465 1466 1467 1467 1468 1469 1470 1471 1471 1472 1473 1474 1474 1475 1475 1476 1476 1476 1476 1476 1476 1476 1476 1475 1473 1473 1472 1472 1471 1470 1469 1468 1467
1458 1458 1459 1459 1460 1460 1461 1462 1462 1463 1464 1465 1466 1467 1467 1468 1469 1470 1471 1471 1471 1472 1472 1472 1472 1471 1471 1471 1470 1469 1469 1468 1467 1467 1466 1465 1463 1462
1453 1453 1454 1454 1455 1455 1456 1457 1458 1459 1460 1460 1461 1462 1463 1463 1464 1465 1466 1466 1467 1467 1467 1467 1467 1467 1467 1467 1466 1465 1464 1464 1463 1462 1461 1460 1459 1458
1448 1449 1449 1449 1450 1451 1451 1452 1453 1453 1454 1455 1456 1457 1458 1458 1459 1460 1461 1461 1462 1462 1462 1462 1462 1463 1463 1463 1462 1461 1460 1459 1458 1457 1457 1456 1455 1454